| time (UTC) | temp F | wind direction | speed MPH | gust MPH | rain 1hr in | rain 24hr in | rain mn in | humidity % | barometer mb |
| 20260509223036 | 80 | 106 | 0.0 | 2.0 | 0.00 | 0.00 | 0.00 | 69 | 1007.5 |
| 20260509221544 | 79 | 311 | 2.0 | 2.0 | 0.00 | 0.00 | 0.00 | 67 | 1007.6 |
| 20260509220042 | 79 | 327 | 1.0 | 4.0 | 0.00 | 0.00 | 0.00 | 66 | 1007.6 |
| 20260509214540 | 80 | 318 | 2.0 | 5.0 | 0.00 | 0.00 | 0.00 | 65 | 1007.5 |
| 20260509213043 | 81 | 340 | 3.0 | 6.0 | 0.00 | 0.00 | 0.00 | 62 | 1007.6 |
| 20260509211541 | 82 | 336 | 7.0 | 13.0 | 0.00 | 0.00 | 0.00 | 59 | 1007.8 |
| 20260509210051 | 87 | 322 | 4.0 | 8.0 | 0.00 | 0.00 | 0.00 | 60 | 1007.9 |
| 20260509204544 | 88 | 198 | 5.0 | 7.0 | 0.00 | 0.00 | 0.00 | 56 | 1007.7 |
| 20260509203040 | 89 | 349 | 3.0 | 6.0 | 0.00 | 0.00 | 0.00 | 55 | 1008.3 |
| 20260509201542 | 88 | 350 | 2.0 | 4.0 | 0.00 | 0.00 | 0.00 | 58 | 1008.3 |
| 20260509200041 | 88 | 153 | 1.0 | 6.0 | 0.00 | 0.00 | 0.00 | 59 | 1008.8 |
| 20260509194541 | 88 | 223 | 4.0 | 10.0 | 0.00 | 0.00 | 0.00 | 60 | 1008.9 |
| 20260509193046 | 87 | 250 | 4.0 | 7.0 | 0.00 | 0.00 | 0.00 | 64 | 1009.0 |
| 20260509191542 | 86 | 188 | 5.0 | 8.0 | 0.00 | 0.00 | 0.00 | 68 | 1009.0 |
| 20260509190043 | 85 | 192 | 1.0 | 5.0 | 0.00 | 0.00 | 0.00 | 69 | 1009.4 |
| 20260509184541 | 85 | 159 | 3.0 | 7.0 | 0.00 | 0.00 | 0.00 | 67 | 1009.8 |
| 20260509183104 | 84 | 254 | 2.0 | 8.0 | 0.00 | 0.00 | 0.00 | 69 | 1010.0 |
| 20260509181600 | 85 | 228 | 2.0 | 7.0 | 0.00 | 0.00 | 0.00 | 69 | 1010.0 |
| 20260509180041 | 84 | 287 | 4.0 | 13.0 | 0.00 | 0.00 | 0.00 | 74 | 1010.2 |
| 20260509174543 | 83 | 286 | 4.0 | 9.0 | 0.00 | 0.00 | 0.00 | 75 | 1010.4 |
| 20260509173042 | 82 | 252 | 5.0 | 10.0 | 0.00 | 0.00 | 0.00 | 73 | 1010.6 |
| 20260509171544 | 82 | 298 | 3.0 | 8.0 | 0.00 | 0.00 | 0.00 | 75 | 1010.6 |
| 20260509170041 | 82 | 223 | 4.0 | 8.0 | 0.00 | 0.00 | 0.00 | 78 | 1010.6 |
| 20260509164541 | 81 | 232 | 3.0 | 8.0 | 0.00 | 0.00 | 0.00 | 79 | 1010.8 |
| 20260509163040 | 80 | 222 | 5.0 | 8.0 | 0.00 | 0.00 | 0.00 | 81 | 1010.7 |
| 20260509161541 | 80 | 262 | 2.0 | 6.0 | 0.00 | 0.00 | 0.00 | 81 | 1010.8 |
| 20260509160041 | 79 | 284 | 2.0 | 6.0 | 0.00 | 0.00 | 0.00 | 82 | 1010.7 |
| 20260509154546 | 77 | 267 | 1.0 | 6.0 | 0.00 | 0.00 | 0.00 | 86 | 1010.4 |
| 20260509153040 | 76 | 194 | 1.0 | 5.0 | 0.00 | 0.00 | 0.00 | 91 | 1010.4 |
| 20260509151542 | 74 | 0 | 1.0 | 2.0 | 0.00 | 0.00 | 0.00 | 94 | 1010.4 |
| 20260509150040 | 73 | 179 | 2.0 | 7.0 | 0.00 | 0.00 | 0.00 | 96 | 1010.5 |
| 20260509144542 | 73 | 158 | 3.0 | 5.0 | 0.00 | 0.00 | 0.00 | 96 | 1010.8 |
| 20260509143043 | 73 | 190 | 1.0 | 2.0 | 0.00 | 0.00 | 0.00 | 96 | 1010.9 |
| 20260509141541 | 73 | 0 | 0.0 | 2.0 | 0.00 | 0.00 | 0.00 | 96 | 1010.2 |
| 20260509140046 | 73 | 0 | 0.0 | 2.0 | 0.00 | 0.00 | 0.00 | 96 | 1010.4 |
| 20260509134541 | 73 | 111 | 1.0 | 2.0 | 0.00 | 0.00 | 0.00 | 96 | 1010.3 |
| 20260509133040 | 72 | 169 | 0.0 | 3.0 | 0.00 | 0.00 | 0.00 | 96 | 1010.6 |
| 20260509131540 | 72 | 134 | 1.0 | 2.0 | 0.00 | 0.00 | 0.00 | 96 | 1010.6 |
| 20260509130046 | 72 | 129 | 1.0 | 2.0 | 0.00 | 0.00 | 0.00 | 96 | 1010.4 |
| 20260509124542 | 72 | 94 | 1.0 | 3.0 | 0.00 | 0.00 | 0.00 | 96 | 1010.3 |
| 20260509123042 | 72 | 173 | 1.0 | 3.0 | 0.00 | 0.00 | 0.00 | 96 | 1010.4 |
| 20260509121541 | 72 | 9 | 0.0 | 2.0 | 0.00 | 0.00 | 0.00 | 96 | 1010.2 |
| 20260509120051 | 72 | 0 | 0.0 | 1.0 | 0.00 | 0.00 | 0.00 | 96 | 1010.4 |
| 20260509114541 | 72 | 165 | 1.0 | 2.0 | 0.00 | 0.00 | 0.00 | 96 | 1010.1 |
| 20260509113042 | 72 | 24 | 2.0 | 5.0 | 0.00 | 0.00 | 0.00 | 96 | 1010.4 |
| 20260509111540 | 72 | 11 | 3.0 | 8.0 | 0.00 | 0.00 | 0.00 | 96 | 1010.1 |
| 20260509110041 | 72 | 37 | 4.0 | 10.0 | 0.00 | 0.00 | 0.00 | 96 | 1010.4 |
| 20260509104545 | 72 | 5 | 3.0 | 5.0 | 0.00 | 0.00 | 0.00 | 96 | 1010.3 |
| 20260509103042 | 72 | 0 | 0.0 | 2.0 | 0.00 | 0.00 | 0.00 | 96 | 1010.0 |
| 20260509101551 | 72 | 123 | 1.0 | 2.0 | 0.00 | 0.00 | 0.00 | 96 | 1010.1 |
| 20260509100041 | 72 | 52 | 0.0 | 0.0 | 0.00 | 0.00 | 0.00 | 96 | 1010.1 |
| 20260509094541 | 72 | 32 | 1.0 | 2.0 | 0.00 | 0.00 | 0.00 | 95 | 1009.8 |
| 20260509093052 | 72 | 61 | 0.0 | 2.0 | 0.00 | 0.00 | 0.00 | 95 | 1009.7 |
| 20260509091540 | 72 | 36 | 1.0 | 2.0 | 0.00 | 0.00 | 0.00 | 95 | 1009.7 |
| 20260509090043 | 72 | 51 | 0.0 | 2.0 | 0.00 | 0.00 | 0.00 | 95 | 1009.5 |
| 20260509084550 | 72 | 71 | 1.0 | 4.0 | 0.00 | 0.00 | 0.00 | 95 | 1009.6 |
| 20260509083040 | 72 | 31 | 1.0 | 3.0 | 0.00 | 0.00 | 0.00 | 95 | 1009.9 |
| 20260509081543 | 72 | 142 | 0.0 | 2.0 | 0.00 | 0.00 | 0.00 | 94 | 1009.8 |
| 20260509080050 | 72 | 142 | 0.0 | 2.0 | 0.00 | 0.00 | 0.00 | 94 | 1009.5 |
| 20260509074543 | 72 | 183 | 1.0 | 4.0 | 0.00 | 0.00 | 0.00 | 94 | 1009.7 |
| 20260509073042 | 72 | 193 | 1.0 | 5.0 | 0.00 | 0.00 | 0.00 | 94 | 1009.8 |
| 20260509071541 | 72 | 167 | 3.0 | 6.0 | 0.00 | 0.00 | 0.00 | 94 | 1009.6 |
| 20260509070045 | 72 | 163 | 2.0 | 5.0 | 0.00 | 0.00 | 0.00 | 94 | 1009.8 |
| 20260509064541 | 72 | 159 | 2.0 | 8.0 | 0.00 | 0.00 | 0.00 | 94 | 1009.6 |
| 20260509063041 | 72 | 144 | 3.0 | 6.0 | 0.00 | 0.00 | 0.00 | 93 | 1009.7 |
| 20260509061545 | 72 | 152 | 3.0 | 8.0 | 0.00 | 0.00 | 0.00 | 93 | 1009.5 |
| 20260509060048 | 72 | 121 | 3.0 | 7.0 | 0.00 | 0.00 | 0.00 | 93 | 1009.5 |
| 20260509054542 | 72 | 161 | 3.0 | 8.0 | 0.00 | 0.00 | 0.00 | 93 | 1009.6 |
| 20260509053042 | 72 | 173 | 6.0 | 10.0 | 0.00 | 0.00 | 0.00 | 93 | 1009.7 |
| 20260509051541 | 72 | 163 | 3.0 | 8.0 | 0.00 | 0.00 | 0.00 | 93 | 1009.4 |
| 20260509050045 | 72 | 142 | 3.0 | 7.0 | 0.00 | 0.00 | 0.00 | 93 | 1009.3 |
| 20260509044540 | 72 | 151 | 2.0 | 5.0 | 0.00 | 0.00 | 0.00 | 92 | 1009.6 |
| 20260509043042 | 72 | 130 | 2.0 | 6.0 | 0.00 | 0.00 | 0.00 | 92 | 1009.7 |
| 20260509041541 | 72 | 120 | 1.0 | 2.0 | 0.00 | 0.00 | 0.00 | 91 | 1009.9 |
| 20260509040043 | 72 | 136 | 1.0 | 2.0 | 0.00 | 0.00 | 0.00 | 91 | 1009.8 |
| 20260509034544 | 72 | 115 | 1.0 | 3.0 | 0.00 | 0.00 | 0.00 | 91 | 1009.6 |
| 20260509033041 | 72 | 155 | 1.0 | 2.0 | 0.00 | 0.00 | 0.00 | 90 | 1009.5 |
| 20260509031546 | 73 | 0 | 0.0 | 2.0 | 0.00 | 0.00 | 0.00 | 90 | 1009.5 |
| 20260509030042 | 73 | 0 | 0.0 | 0.0 | 0.00 | 0.00 | 0.00 | 89 | 1009.4 |
| 20260509024542 | 73 | 0 | 0.0 | 2.0 | 0.00 | 0.00 | 0.00 | 88 | 1009.0 |
| 20260509023042 | 74 | 138 | 0.0 | 2.0 | 0.00 | 0.00 | 0.00 | 87 | 1008.7 |
| 20260509021541 | 74 | 120 | 0.0 | 2.0 | 0.00 | 0.00 | 0.00 | 86 | 1008.8 |
| 20260509020040 | 75 | 0 | 0.0 | 2.0 | 0.00 | 0.00 | 0.00 | 85 | 1008.6 |
| 20260509014545 | 75 | 120 | 0.0 | 2.0 | 0.00 | 0.00 | 0.00 | 84 | 1008.3 |
| 20260509013051 | 76 | 127 | 1.0 | 2.0 | 0.00 | 0.00 | 0.00 | 84 | 1008.3 |
| 20260509011544 | 76 | 121 | 1.0 | 3.0 | 0.00 | 0.00 | 0.00 | 83 | 1008.3 |
| 20260509010041 | 76 | 115 | 1.0 | 4.0 | 0.00 | 0.00 | 0.00 | 82 | 1008.2 |
| 20260509004540 | 77 | 105 | 1.0 | 3.0 | 0.00 | 0.00 | 0.00 | 82 | 1008.0 |
| 20260509003044 | 77 | 130 | 1.0 | 2.0 | 0.00 | 0.00 | 0.00 | 81 | 1008.2 |
| 20260509001542 | 77 | 0 | 0.0 | 2.0 | 0.00 | 0.00 | 0.00 | 80 | 1008.2 |
| 20260509000041 | 77 | 121 | 1.0 | 4.0 | 0.00 | 0.00 | 0.00 | 80 | 1008.2 |
| 20260508234541 | 77 | 144 | 2.0 | 5.0 | 0.00 | 0.00 | 0.00 | 80 | 1008.2 |
| 20260508233059 | 77 | 163 | 2.0 | 4.0 | 0.00 | 0.00 | 0.00 | 79 | 1008.1 |
| 20260508231546 | 77 | 123 | 1.0 | 4.0 | 0.00 | 0.00 | 0.00 | 79 | 1008.5 |
| 20260508230052 | 77 | 123 | 1.0 | 5.0 | 0.00 | 0.00 | 0.00 | 78 | 1008.4 |
| 20260508224541 | 78 | 134 | 2.0 | 6.0 | 0.00 | 0.00 | 0.00 | 78 | 1008.2 |